User: anonymous   Login
Location: Clinton NY
(43.0598°N, 75.3602°W)
Time: 12:07:31
(UTC-04:00)
Language:

Iridium 11 - Orbit

View from above orbital plane
View from above orbital plane
View from above satellite
View from above satellite

Ground track
Ground track

The orbit data is extracted from the following two-line orbital elements,

1 25578U 98074B   15088.48107183  .00000595  00000-0  20550-3 0  9993
2 25578 086.3958 234.4478 0002249 093.5481 329.4342 14.34216557861209
Epoch (UTC): 29 March 2015 11:32:44
Eccentricity: 0.0002249
inclination: 86.3958°
perigee height: 776 km
apogee height: 779 km
right ascension of ascending node: 234.4478°
argument of perigee: 93.5481°
revolutions per day: 14.34216557
mean anomaly at epoch: 329.4342°
orbit number at epoch: 86120

The dashed part of the orbit path shows where the satellite is in the earth's shadow,  

DLR